| time (UTC) | temp C | wind direction | speed KPH | gust KPH | rain 1hr cm | rain 24hr cm | rain mn cm | humidity % | barometer mb |
| 20260505011701 | 17 | 300 | 12.9 | 41.8 | 0.00 | 0.00 | 0.00 | 37 | 1004.9 |
| 20260505011201 | 18 | 332 | 14.5 | 43.5 | 0.00 | 0.00 | 0.00 | 36 | 1004.9 |
| 20260505010701 | 18 | 11 | 12.9 | 43.5 | 0.00 | 0.00 | 0.00 | 36 | 1004.6 |
| 20260505010200 | 19 | 32 | 11.3 | 25.7 | 0.00 | 0.00 | 0.00 | 35 | 1004.6 |
| 20260505005700 | 20 | 9 | 11.3 | 24.1 | 0.00 | 0.00 | 0.00 | 35 | 1004.4 |
| 20260505005201 | 20 | 323 | 12.9 | 25.7 | 0.00 | 0.00 | 0.00 | 34 | 1004.6 |
| 20260505004702 | 20 | 7 | 11.3 | 27.4 | 0.00 | 0.00 | 0.00 | 34 | 1004.6 |
| 20260505004201 | 20 | 328 | 8.0 | 27.4 | 0.00 | 0.00 | 0.00 | 35 | 1004.4 |
| 20260505003701 | 20 | 344 | 8.0 | 25.7 | 0.00 | 0.00 | 0.00 | 35 | 1004.3 |
| 20260505003432 | 20 | 51 | 9.7 | 25.7 | 0.00 | 0.00 | 0.00 | 35 | 1004.2 |
| 20260505002700 | 20 | 162 | 11.3 | 24.1 | 0.00 | 0.00 | 0.00 | 34 | 1004.2 |
| 20260505002204 | 20 | 304 | 11.3 | 24.1 | 0.00 | 0.00 | 0.00 | 34 | 1004.3 |
| 20260505001704 | 20 | 30 | 12.9 | 25.7 | 0.00 | 0.00 | 0.00 | 34 | 1004.2 |
| 20260505001204 | 21 | 291 | 11.3 | 25.7 | 0.00 | 0.00 | 0.00 | 33 | 1004.1 |
| 20260505000703 | 21 | 17 | 9.7 | 25.7 | 0.00 | 0.00 | 0.00 | 33 | 1003.9 |
| 20260505000204 | 21 | 266 | 9.7 | 25.7 | 0.00 | 0.00 | 0.00 | 33 | 1003.8 |
| 20260504235703 | 21 | 296 | 8.0 | 19.3 | 0.00 | 0.00 | 0.00 | 33 | 1003.8 |
| 20260504235204 | 22 | 356 | 9.7 | 25.7 | 0.00 | 0.00 | 0.00 | 33 | 1003.8 |
| 20260504234704 | 22 | 37 | 11.3 | 25.7 | 0.00 | 0.00 | 0.00 | 32 | 1003.8 |
| 20260504234435 | 21 | 333 | 8.0 | 24.1 | 0.00 | 0.00 | 0.00 | 34 | 1004.0 |
| 20260504233703 | 21 | 330 | 8.0 | 24.1 | 0.00 | 0.00 | 0.00 | 34 | 1004.1 |
| 20260504233203 | 22 | 290 | 9.7 | 25.7 | 0.00 | 0.00 | 0.00 | 33 | 1004.0 |
| 20260504232703 | 22 | 327 | 11.3 | 25.7 | 0.00 | 0.00 | 0.00 | 33 | 1003.9 |
| 20260504232435 | 22 | 28 | 11.3 | 25.7 | 0.00 | 0.00 | 0.00 | 32 | 1003.9 |
| 20260504231704 | 22 | 313 | 9.7 | 24.1 | 0.00 | 0.00 | 0.00 | 32 | 1003.9 |
| 20260504231204 | 22 | 333 | 11.3 | 24.1 | 0.00 | 0.00 | 0.00 | 32 | 1003.8 |
| 20260504230934 | 22 | 321 | 12.9 | 29.0 | 0.00 | 0.00 | 0.00 | 31 | 1003.7 |
| 20260504230203 | 23 | 338 | 11.3 | 29.0 | 0.00 | 0.00 | 0.00 | 31 | 1003.6 |
| 20260504225703 | 23 | 313 | 11.3 | 29.0 | 0.00 | 0.00 | 0.00 | 31 | 1003.5 |
| 20260504225204 | 23 | 322 | 11.3 | 24.1 | 0.00 | 0.00 | 0.00 | 30 | 1003.5 |
| 20260504224703 | 24 | 16 | 9.7 | 24.1 | 0.00 | 0.00 | 0.00 | 30 | 1003.6 |
| 20260504224204 | 24 | 27 | 9.7 | 19.3 | 0.00 | 0.00 | 0.00 | 29 | 1003.5 |
| 20260504223703 | 24 | 27 | 11.3 | 20.9 | 0.00 | 0.00 | 0.00 | 30 | 1003.2 |
| 20260504223203 | 24 | 337 | 11.3 | 24.1 | 0.00 | 0.00 | 0.00 | 29 | 1003.0 |
| 20260504222703 | 25 | 313 | 9.7 | 24.1 | 0.00 | 0.00 | 0.00 | 29 | 1002.7 |
| 20260504222204 | 25 | 328 | 8.0 | 24.1 | 0.00 | 0.00 | 0.00 | 30 | 1002.8 |
| 20260504221704 | 25 | 340 | 9.7 | 24.1 | 0.00 | 0.00 | 0.00 | 29 | 1002.8 |
| 20260504221204 | 25 | 321 | 8.0 | 22.5 | 0.00 | 0.00 | 0.00 | 32 | 1002.6 |
| 20260504220703 | 25 | 330 | 8.0 | 16.1 | 0.00 | 0.00 | 0.00 | 32 | 1002.5 |
| 20260504220203 | 25 | 333 | 8.0 | 17.7 | 0.00 | 0.00 | 0.00 | 32 | 1002.3 |
| 20260504215703 | 25 | 299 | 8.0 | 17.7 | 0.00 | 0.00 | 0.00 | 32 | 1002.4 |
| 20260504215203 | 25 | 306 | 8.0 | 27.4 | 0.00 | 0.00 | 0.00 | 32 | 1002.2 |
| 20260504214704 | 25 | 333 | 9.7 | 27.4 | 0.00 | 0.00 | 0.00 | 31 | 1002.2 |
| 20260504214204 | 26 | 336 | 9.7 | 24.1 | 0.00 | 0.00 | 0.00 | 31 | 1002.2 |
| 20260504213935 | 26 | 325 | 9.7 | 19.3 | 0.00 | 0.00 | 0.00 | 31 | 1002.1 |
| 20260504213203 | 26 | 306 | 8.0 | 19.3 | 0.00 | 0.00 | 0.00 | 31 | 1002.2 |
| 20260504212703 | 27 | 47 | 9.7 | 25.7 | 0.00 | 0.00 | 0.00 | 33 | 1002.1 |
| 20260504212204 | 26 | 282 | 9.7 | 25.7 | 0.00 | 0.00 | 0.00 | 32 | 1001.9 |
| 20260504211703 | 27 | 326 | 8.0 | 19.3 | 0.00 | 0.00 | 0.00 | 33 | 1001.9 |
| 20260504211434 | 27 | 2 | 6.4 | 19.3 | 0.00 | 0.00 | 0.00 | 34 | 1001.9 |
| 20260504210704 | 27 | 38 | 8.0 | 17.7 | 0.00 | 0.00 | 0.00 | 35 | 1001.9 |
| 20260504210203 | 27 | 330 | 8.0 | 20.9 | 0.00 | 0.00 | 0.00 | 34 | 1001.8 |
| 20260504205654 | 26 | 325 | 8.0 | 20.9 | 0.00 | 0.00 | 0.00 | 36 | 1002.1 |
| 20260504205149 | 26 | 351 | 8.0 | 19.3 | 0.00 | 0.00 | 0.00 | 34 | 1001.9 |
| 20260504204643 | 27 | 336 | 8.0 | 19.3 | 0.00 | 0.00 | 0.00 | 34 | 1001.9 |
| 20260504204137 | 27 | 343 | 8.0 | 17.7 | 0.00 | 0.00 | 0.00 | 33 | 1001.9 |
| 20260504203630 | 27 | 313 | 9.7 | 19.3 | 0.00 | 0.00 | 0.00 | 32 | 1001.8 |
| 20260504203131 | 27 | 315 | 8.0 | 19.3 | 0.00 | 0.00 | 0.00 | 31 | 1001.9 |
| 20260504202630 | 27 | 321 | 6.4 | 17.7 | 0.00 | 0.00 | 0.00 | 32 | 1001.9 |
| 20260504202132 | 27 | 14 | 6.4 | 17.7 | 0.00 | 0.00 | 0.00 | 31 | 1001.9 |
| 20260504201631 | 27 | 276 | 8.0 | 19.3 | 0.00 | 0.00 | 0.00 | 31 | 1001.9 |
| 20260504201131 | 27 | 316 | 8.0 | 19.3 | 0.00 | 0.00 | 0.00 | 30 | 1001.9 |
| 20260504200631 | 27 | 311 | 9.7 | 20.9 | 0.00 | 0.00 | 0.00 | 30 | 1001.8 |
| 20260504200402 | 27 | 350 | 8.0 | 20.9 | 0.00 | 0.00 | 0.00 | 29 | 1001.8 |
| 20260504195901 | 28 | 336 | 6.4 | 19.3 | 0.00 | 0.00 | 0.00 | 30 | 1001.8 |
| 20260504195131 | 28 | 326 | 8.0 | 17.7 | 0.00 | 0.00 | 0.00 | 30 | 1001.8 |
| 20260504194631 | 28 | 333 | 8.0 | 17.7 | 0.00 | 0.00 | 0.00 | 29 | 1001.8 |
| 20260504194132 | 28 | 296 | 8.0 | 17.7 | 0.00 | 0.00 | 0.00 | 31 | 1001.7 |
| 20260504193632 | 28 | 342 | 9.7 | 17.7 | 0.00 | 0.00 | 0.00 | 29 | 1001.7 |
| 20260504193132 | 28 | 355 | 8.0 | 17.7 | 0.00 | 0.00 | 0.00 | 28 | 1001.7 |
| 20260504192631 | 28 | 339 | 8.0 | 17.7 | 0.00 | 0.00 | 0.00 | 28 | 1001.7 |
| 20260504192131 | 27 | 326 | 9.7 | 19.3 | 0.00 | 0.00 | 0.00 | 29 | 1001.7 |
| 20260504191632 | 28 | 323 | 9.7 | 19.3 | 0.00 | 0.00 | 0.00 | 28 | 1001.8 |
| 20260504191129 | 28 | 334 | 9.7 | 25.7 | 0.00 | 0.00 | 0.00 | 27 | 1001.7 |
| 20260504190900 | 28 | 338 | 9.7 | 25.7 | 0.00 | 0.00 | 0.00 | 30 | 1001.7 |
| 20260504190130 | 28 | 346 | 9.7 | 25.7 | 0.00 | 0.00 | 0.00 | 28 | 1001.7 |
| 20260504185628 | 28 | 323 | 8.0 | 25.7 | 0.00 | 0.00 | 0.00 | 28 | 1001.7 |
| 20260504185129 | 28 | 338 | 8.0 | 17.7 | 0.00 | 0.00 | 0.00 | 27 | 1001.6 |
| 20260504184629 | 28 | 311 | 6.4 | 17.7 | 0.00 | 0.00 | 0.00 | 26 | 1001.7 |
| 20260504184129 | 28 | 295 | 8.0 | 16.1 | 0.00 | 0.00 | 0.00 | 26 | 1001.7 |
| 20260504183629 | 28 | 330 | 8.0 | 19.3 | 0.00 | 0.00 | 0.00 | 27 | 1001.8 |
| 20260504183129 | 28 | 232 | 6.4 | 19.3 | 0.00 | 0.00 | 0.00 | 26 | 1001.8 |
| 20260504182629 | 27 | 316 | 8.0 | 17.7 | 0.00 | 0.00 | 0.00 | 29 | 1001.7 |
| 20260504182400 | 27 | 319 | 8.0 | 17.7 | 0.00 | 0.00 | 0.00 | 26 | 1001.8 |
| 20260504181629 | 27 | 330 | 8.0 | 22.5 | 0.00 | 0.00 | 0.00 | 27 | 1001.8 |
| 20260504181359 | 27 | 11 | 8.0 | 22.5 | 0.00 | 0.00 | 0.00 | 26 | 1001.9 |
| 20260504180630 | 27 | 328 | 8.0 | 20.9 | 0.00 | 0.00 | 0.00 | 29 | 1001.8 |
| 20260504180129 | 27 | 46 | 8.0 | 20.9 | 0.00 | 0.00 | 0.00 | 26 | 1001.8 |
| 20260504175628 | 27 | 309 | 8.0 | 20.9 | 0.00 | 0.00 | 0.00 | 26 | 1001.8 |
| 20260504175400 | 27 | 311 | 8.0 | 22.5 | 0.00 | 0.00 | 0.00 | 27 | 1001.8 |
| 20260504174632 | 27 | 344 | 6.4 | 22.5 | 0.00 | 0.00 | 0.00 | 29 | 1001.8 |
| 20260504174131 | 27 | 303 | 6.4 | 19.3 | 0.00 | 0.00 | 0.00 | 30 | 1001.9 |
| 20260504173631 | 27 | 230 | 6.4 | 19.3 | 0.00 | 0.00 | 0.00 | 29 | 1002.1 |
| 20260504173131 | 27 | 315 | 6.4 | 19.3 | 0.00 | 0.00 | 0.00 | 30 | 1002.2 |
| 20260504172631 | 26 | 344 | 8.0 | 25.7 | 0.00 | 0.00 | 0.00 | 31 | 1002.3 |
| 20260504172131 | 26 | 246 | 8.0 | 25.7 | 0.00 | 0.00 | 0.00 | 30 | 1002.3 |
| 20260504171632 | 26 | 343 | 8.0 | 24.1 | 0.00 | 0.00 | 0.00 | 30 | 1002.3 |
| 20260504171132 | 26 | 333 | 8.0 | 24.1 | 0.00 | 0.00 | 0.00 | 31 | 1002.3 |
| 20260504170631 | 26 | 333 | 6.4 | 16.1 | 0.00 | 0.00 | 0.00 | 32 | 1002.4 |
| 20260504170131 | 26 | 335 | 4.8 | 14.5 | 0.00 | 0.00 | 0.00 | 35 | 1002.5 |
| 20260504160131 | 23 | 2 | 4.8 | 12.9 | 0.00 | 0.00 | 0.00 | 42 | 1002.6 |
| 20260504151131 | 20 | 232 | 4.8 | 11.3 | 0.00 | 0.00 | 0.00 | 51 | 1002.8 |
| 20260504150631 | 20 | 237 | 4.8 | 11.3 | 0.00 | 0.00 | 0.00 | 50 | 1002.8 |
| 20260504150402 | 20 | 282 | 3.2 | 8.0 | 0.00 | 0.00 | 0.00 | 51 | 1002.8 |
| 20260504141129 | 17 | 348 | 4.8 | 14.5 | 0.00 | 0.00 | 0.00 | 52 | 1002.8 |
| 20260504140630 | 17 | 342 | 3.2 | 8.0 | 0.00 | 0.00 | 0.00 | 54 | 1002.8 |
| 20260504140129 | 16 | 315 | 3.2 | 11.3 | 0.00 | 0.00 | 0.00 | 54 | 1002.7 |
| 20260504130629 | 14 | 333 | 1.6 | 4.8 | 0.00 | 0.00 | 0.00 | 60 | 1002.6 |
| 20260504130400 | 14 | 326 | 1.6 | 6.4 | 0.00 | 0.00 | 0.00 | 60 | 1002.5 |
| 20260504120129 | 9 | 233 | 0.0 | 0.0 | 0.00 | 0.00 | 0.00 | 72 | 1001.9 |
| 20260504110629 | 11 | 233 | 0.0 | 1.6 | 0.00 | 0.00 | 0.00 | 64 | 1001.9 |
| 20260504110129 | 11 | 233 | 0.0 | 1.6 | 0.00 | 0.00 | 0.00 | 62 | 1001.9 |
| 20260504100129 | 13 | 209 | 1.6 | 6.4 | 0.00 | 0.00 | 0.00 | 54 | 1002.3 |
| 20260504090118 | 15 | 129 | 4.8 | 12.9 | 0.00 | 0.00 | 0.00 | 50 | 1002.7 |
| 20260504081614 | 15 | 113 | 3.2 | 11.3 | 0.00 | 0.00 | 0.00 | 48 | 1003.5 |
| 20260504081345 | 15 | 220 | 3.2 | 11.3 | 0.00 | 0.00 | 0.00 | 48 | 1003.6 |
| 20260504080614 | 15 | 111 | 4.8 | 9.7 | 0.00 | 0.00 | 0.00 | 48 | 1003.7 |
| 20260504080112 | 15 | 101 | 4.8 | 9.7 | 0.00 | 0.00 | 0.00 | 48 | 1003.7 |
| 20260504070332 | 16 | 172 | 4.8 | 9.7 | 0.00 | 0.00 | 0.00 | 47 | 1005.1 |
| 20260504045600 | 17 | 105 | 3.2 | 6.4 | 0.00 | 0.00 | 0.00 | 43 | 1006.4 |
| 20260504045101 | 17 | 105 | 3.2 | 6.4 | 0.00 | 0.00 | 0.00 | 43 | 1006.4 |
| 20260504044832 | 17 | 105 | 3.2 | 6.4 | 0.00 | 0.00 | 0.00 | 43 | 1006.6 |
| 20260504044331 | 17 | 60 | 3.2 | 4.8 | 0.00 | 0.00 | 0.00 | 43 | 1006.7 |
| 20260504043601 | 17 | 75 | 1.6 | 4.8 | 0.00 | 0.00 | 0.00 | 43 | 1006.7 |
| 20260504043101 | 17 | 86 | 3.2 | 4.8 | 0.00 | 0.00 | 0.00 | 43 | 1006.8 |
| 20260504042600 | 17 | 68 | 1.6 | 4.8 | 0.00 | 0.00 | 0.00 | 44 | 1006.9 |
| 20260504042101 | 17 | 115 | 1.6 | 4.8 | 0.00 | 0.00 | 0.00 | 43 | 1006.9 |
| 20260504041833 | 17 | 115 | 3.2 | 6.4 | 0.00 | 0.00 | 0.00 | 43 | 1006.9 |
| 20260504041101 | 17 | 85 | 1.6 | 6.4 | 0.00 | 0.00 | 0.00 | 43 | 1007.1 |
| 20260504040601 | 17 | 126 | 3.2 | 6.4 | 0.00 | 0.00 | 0.00 | 44 | 1007.3 |
| 20260504035601 | 17 | 123 | 1.6 | 4.8 | 0.00 | 0.00 | 0.00 | 44 | 1007.4 |
| 20260504035103 | 17 | 78 | 1.6 | 4.8 | 0.00 | 0.00 | 0.00 | 44 | 1007.5 |
| 20260504034602 | 17 | 115 | 1.6 | 3.2 | 0.00 | 0.00 | 0.00 | 43 | 1007.6 |
| 20260504034101 | 17 | 122 | 0.0 | 1.6 | 0.00 | 0.00 | 0.00 | 43 | 1007.5 |
| 20260504033601 | 17 | 104 | 0.0 | 3.2 | 0.00 | 0.00 | 0.00 | 42 | 1007.5 |
| 20260504033101 | 17 | 104 | 1.6 | 3.2 | 0.00 | 0.00 | 0.00 | 42 | 1007.5 |
| 20260504032600 | 17 | 122 | 1.6 | 3.2 | 0.00 | 0.00 | 0.00 | 41 | 1007.6 |
| 20260504032101 | 17 | 105 | 1.6 | 4.8 | 0.00 | 0.00 | 0.00 | 41 | 1007.6 |
| 20260504031601 | 18 | 96 | 3.2 | 4.8 | 0.00 | 0.00 | 0.00 | 41 | 1007.6 |
| 20260504031101 | 17 | 64 | 1.6 | 3.2 | 0.00 | 0.00 | 0.00 | 41 | 1007.5 |
| 20260504030601 | 17 | 82 | 1.6 | 4.8 | 0.00 | 0.00 | 0.00 | 42 | 1007.6 |
| 20260504030101 | 18 | 70 | 1.6 | 4.8 | 0.00 | 0.00 | 0.00 | 42 | 1007.6 |
| 20260504025600 | 17 | 62 | 1.6 | 4.8 | 0.00 | 0.00 | 0.00 | 42 | 1007.6 |
| 20260504025103 | 17 | 121 | 1.6 | 3.2 | 0.00 | 0.00 | 0.00 | 42 | 1007.6 |
| 20260504024558 | 18 | 122 | 0.0 | 3.2 | 0.00 | 0.00 | 0.00 | 41 | 1007.6 |
| 20260504024102 | 18 | 69 | 1.6 | 3.2 | 0.00 | 0.00 | 0.00 | 41 | 1007.7 |
| 20260504024058 | 18 | 69 | 0.0 | 3.2 | 0.00 | 0.00 | 0.00 | 41 | 1007.6 |
| 20260504023101 | 18 | 80 | 0.0 | 4.8 | 0.00 | 0.00 | 0.00 | 43 | 1007.7 |
| 20260504023057 | 18 | 68 | 1.6 | 4.8 | 0.00 | 0.00 | 0.00 | 42 | 1007.7 |
| 20260504022056 | 17 | 72 | 0.0 | 3.2 | 0.00 | 0.00 | 0.00 | 43 | 1007.8 |
| 20260504021556 | 18 | 71 | 0.0 | 1.6 | 0.00 | 0.00 | 0.00 | 44 | 1007.8 |
| 20260504021056 | 18 | 71 | 0.0 | 1.6 | 0.00 | 0.00 | 0.00 | 42 | 1007.8 |
| 20260504020556 | 19 | 71 | 0.0 | 1.6 | 0.00 | 0.00 | 0.00 | 40 | 1007.9 |
| 20260504020055 | 19 | 71 | 0.0 | 1.6 | 0.00 | 0.00 | 0.00 | 39 | 1007.9 |
| 20260504015556 | 19 | 71 | 0.0 | 1.6 | 0.00 | 0.00 | 0.00 | 39 | 1007.8 |
| 20260504015054 | 19 | 71 | 0.0 | 1.6 | 0.00 | 0.00 | 0.00 | 39 | 1007.8 |
| 20260504014823 | 20 | 71 | 0.0 | 3.2 | 0.00 | 0.00 | 0.00 | 40 | 1007.8 |
| 20260504014054 | 20 | 72 | 1.6 | 4.8 | 0.00 | 0.00 | 0.00 | 38 | 1007.8 |
| 20260504014050 | 20 | 71 | 0.0 | 3.2 | 0.00 | 0.00 | 0.00 | 38 | 1007.8 |
| 20260504013050 | 20 | 72 | 1.6 | 4.8 | 0.00 | 0.00 | 0.00 | 37 | 1007.8 |
| 20260504012550 | 20 | 72 | 0.0 | 3.2 | 0.00 | 0.00 | 0.00 | 37 | 1007.8 |
| 20260504012050 | 20 | 46 | 0.0 | 3.2 | 0.00 | 0.00 | 0.00 | 37 | 1007.8 |